Showing default

COSMOS 2339, 24727

Orbit data source: Space-Track

COSMOS 2339, 24727 is a payload satellite owned by VKS (CIS) in LEO that was launched on Fri, 14 Feb 1997 UTC via a TSIKLON-3 launch vehicle from the Plesetsk Missile And Space Complex (PKMTR). Payload-class satellites include a variety of spacecraft equipped with specific instruments for various scientific and technological missions. These include communications satellites like Starlink; space stations such as the ISS; scientific satellites like the Hubble; Earth observation satellites from companies like Planet Labs, Umbra, and HawkEye 360; GPS; miniature CubeSats for education and research; and military/defense satellites.

Loading next visibility...
Identifier
24727, 1997-006C
Orbit
LEO
Country
Flag of CISCIS
Related business
Manufacturer
NPO PM
Mission
Non-operational Defense Communications
Bus & Motor
STRELA-3, Unknown motor
Mass
225 kg wet, 225 kg dry
Launch date (UTC)
1997-02-14 (29 years ago)
Launch vehicle
TSIKLON-3
Launch site
Plesetsk Missile And Space Complex (PKMTR)
Object type
Payload
Rocket body
Debris
Shape & HBR
Cyl + 1 Ant, 3.5 m
Radar Cross Section
1.583 m², Large (>1 m²)

Expand to show TLE details & history
Last TLE update: 7 hours ago

TLE from 7 hours ago
0 COSMOS 2339
1 24727U 97006C   25343.18122565  .00000019  00000-0  45218-4 0  9995
2 24727  82.6059  16.1818 0001719  95.4959 328.0709 12.62374807327605
Epoch: 2025-12-09T04:20Z
TLE epoch observation values (Epoch: 2025-12-09T04:20:57.896Z)
Latitude
62.6986°
Longitude
-112.74121°
Altitude
1,422.749 km
Speed
7.156 km/s
True Right ascension
02h 02m 40s
True Declination
62° 34' 13"
Sunlit
Object was in full shadow at epoch
Visualization orbit readout
Latitude
Unknown
Longitude
Unknown
Altitude
Unknown
Speed
Unknown
Apparent Right ascension
Unknown
Apparent Declination
Unknown
Sunlit
N/A
Visualization observer readout
Local Sidereal Time
09:04:53
Azimuth
Unknown
Elevation
Unknown
Doppler factor
Unknown
Orbital elements
Apogee altitude
1,411.816 km
Perigee altitude
1,409.138 km
Semi-major axis
7,788.614 km
Eccentricity
0.00017
Inclination
82.6059°
RAAN
16.1818°
Arg. of periapsis
95.4959°
True anomaly
328.06048°
Mean anomaly
328.0709°
Eccentric anomaly
328.06569°
Mean motion
3.15757 °/min
Orbital period
114.01 mins
BSTAR
0.000045218
Loading maneuver chart data...
Computing Atmospheric mass density...
Loading historical data...
Loading historical data...
Loading historical data...
Loading historical data...
Loading historical data...
Loading historical data...
Loading historical data...

Documentation

Showing up to 5 results
|